Regional Weather Roundup
Issued by NWS

Home | Current Version | Previous Version | Graphics & Text | Print | Product List | Glossary On
Versions: 1 2 3 4 5 6 7 8 9 10 11 12 13 14 15 16 17 18 19 20 21 22 23 24 25 26 27 28 29 30 31 32 33 34 35 36 37 38 39 40 41 42 43 44 45 46 47 48 49 50
000
ASUS45 KCYS 200810
RWRWY

WYOMING REGIONAL WEATHER ROUNDUP
NATIONAL WEATHER SERVICE CHEYENNE WY
200 AM MDT WED AUG 20 2014

NOTE:  "FAIR" INDICATES FEW OR NO CLOUDS BELOW 12,000 FEET
WITH NO SIGNIFICANT WEATHER AND/OR OBSTRUCTIONS TO VISIBILITY.

WYZ001-200900-
YELLOWSTONE NATIONAL PARK

CITY           SKY/WX    TMP DP  RH WIND       PRES   REMARKS
LK YELLOWSTONE   N/A     47  43  86 NW3       30.10F
W YELLOWSTONE  NOT AVBL

$$
WYZ002>013-054>058-071-098>099-200900-
NORTHERN WYOMING

CITY           SKY/WX    TMP DP  RH WIND       PRES   REMARKS
JACKSON        CLOUDY    52  48  87 CALM      30.02F
CODY           CLOUDY    66  46  48 SW10G20   29.86F
GREYBULL       CLOUDY    71  48  43 CALM      29.78S
WORLAND        CLOUDY    66  52  60 NE6       29.79S
SHERIDAN       CLOUDY    74  43  32 W13       29.75R
BUFFALO        LGT RAIN  69  43  38 N5        29.81S
GILLETTE       CLOUDY    75  45  34 SW18G25   29.75S
HULETT         PTSUNNY   77  45  31 MISG      29.77
NEWCASTLE      FAIR      70  52  52 SE7       29.81

$$
WYZ014>020-022>026-101>103-200900-
CENTRAL WYOMING

CITY           SKY/WX    TMP DP  RH WIND       PRES   REMARKS
BIG PINEY      PTCLDY    52  44  74 NW6       30.05S
PINEDALE       PTSUNNY   52  45  76 W14       30.04F
DUBOIS         CLOUDY    52  43  71 W17       30.02F
LANDER         MOCLDY    64  43  46 NW8       29.87F
RIVERTON       CLOUDY    64  44  48 NW15      29.87S
CASPER         CLOUDY    65  48  54 SW13      29.88S
DOUGLAS        CLOUDY    68  48  48 CALM      29.88R

$$
WYZ021-027>030-104>119-200900-
SOUTHERN WYOMING

CITY           SKY/WX    TMP DP  RH WIND       PRES   REMARKS
EVANSTON       CLOUDY    53  50  89 SE5       30.06S
KEMMERER       RAIN      52  45  76 W5        30.07S
FORT BRIDGER   CLOUDY    55  51  86 SW7       30.08S
ROCK SPRINGS   MOCLDY    54  49  83 SW7       30.03S
DIXON          RAIN      57  55  92 CALM      30.07S
RAWLINS        CLOUDY    59  50  72 S16       30.02F
SARATOGA       LGT RAIN  54  52  94 MISG      30.06F
LARAMIE        CLOUDY    56  51  84 SW7       30.06S
CHEYENNE       CLOUDY    60  52  74 W6        29.98R
TORRINGTON     CLOUDY    68  53  58 SE5       29.82S
PINE BLUFFS    FAIR      61  54  77 CALM      29.91S

$$


USA.gov is the U.S. government's official web portal to all federal, state and local government web resources and services.